When you browse on this site, cookies collect data to enhance your experience and personalize the content and advertising you see.
Visit our Privacy Policy to learn more. By continuing to use the site, you agree to this use of cookies and data.
  • En España
  • Lista de países
  • Para 7 días
  • Temperatura del agua
  • El tiempo en el mapa
  • Informadores
  • user-avatar
    Iniciar sesión

    Tiempo cada hora My Tho

    Hoy, 31 Mayo, Domingo

    Tiempo Temperatura Precipitaciones Viento Presión Humedad
    00:00 +27°C° 0 mm 0 mps 758 mmHg 84%
    01:00 +27°C° 0 mm 0 mps 758 mmHg 83%
    02:00 +27°C° 0 mm 0 mps 757 mmHg 84%
    03:00 +27°C° 0 mm 0 mps 757 mmHg 85%
    04:00 +28°C° 0 mm 1 mps 757 mmHg 85%
    05:00 +27°C° 0 mm 0 mps 757 mmHg 83%
    06:00 +28°C° 0 mm 0 mps 758 mmHg 80%
    07:00 +28°C° 0 mm 0 mps 758 mmHg 77%
    08:00 +32°C° 0 mm 1 mps 758 mmHg 70%
    09:00 +34°C° 0 mm 1 mps 758 mmHg 62%
    10:00 +36°C° 0 mm 1 mps 758 mmHg 54%
    11:00 +37°C° 0.3 mm 2 mps 758 mmHg 54%
    12:00 +37°C° 0.3 mm 2 mps 757 mmHg 54%
    13:00 +37°C° 0.3 mm 2 mps 757 mmHg 53%
    14:00 +37°C° 0.5 mm 2 mps 756 mmHg 54%
    15:00 +37°C° 0.5 mm 2 mps 755 mmHg 55%
    16:00 +36°C° 0.5 mm 3 mps 755 mmHg 55%
    17:00 +35°C° 0.6 mm 2 mps 755 mmHg 63%
    18:00 +32°C° 0.6 mm 2 mps 755 mmHg 70%
    19:00 +31°C° 0.6 mm 2 mps 756 mmHg 77%
    20:00 +30°C° 0.1 mm 1 mps 757 mmHg 78%
    21:00 +30°C° 0.1 mm 1 mps 757 mmHg 80%
    22:00 +30°C° 0.1 mm 1 mps 758 mmHg 81%
    23:00 +29°C° 0.2 mm 1 mps 758 mmHg 82%

    Mañana, 1 Junio, Lunes

    Tiempo Temperatura Precipitaciones Viento Presión Humedad
    00:00 +29°C° 0.2 mm 1 mps 757 mmHg 83%
    01:00 +29°C° 0.2 mm 1 mps 757 mmHg 84%
    02:00 +29°C° 0 mm 1 mps 757 mmHg 85%
    03:00 +29°C° 0 mm 1 mps 757 mmHg 86%
    04:00 +26°C° 0 mm 0 mps 756 mmHg 86%
    05:00 +27°C° 0 mm 0 mps 757 mmHg 83%
    06:00 +28°C° 0 mm 0 mps 757 mmHg 81%
    07:00 +28°C° 0 mm 0 mps 757 mmHg 78%
    08:00 +31°C° 0 mm 0 mps 757 mmHg 70%
    09:00 +33°C° 0 mm 0 mps 757 mmHg 61%
    10:00 +37°C° 0 mm 1 mps 757 mmHg 53%
    11:00 +39°C° 0 mm 1 mps 757 mmHg 50%
    12:00 +39°C° 0 mm 1 mps 757 mmHg 47%
    13:00 +40°C° 0 mm 1 mps 756 mmHg 43%
    14:00 +39°C° 0.4 mm 2 mps 755 mmHg 47%
    15:00 +38°C° 0.4 mm 2 mps 755 mmHg 50%
    16:00 +37°C° 0.4 mm 2 mps 754 mmHg 54%
    17:00 +35°C° 1.7 mm 2 mps 755 mmHg 62%
    18:00 +32°C° 1.7 mm 2 mps 755 mmHg 71%
    19:00 +30°C° 1.7 mm 2 mps 756 mmHg 79%
    20:00 +30°C° 0.7 mm 2 mps 756 mmHg 81%
    21:00 +30°C° 0.7 mm 2 mps 757 mmHg 83%
    22:00 +29°C° 0.7 mm 2 mps 757 mmHg 85%
    23:00 +29°C° 1.4 mm 2 mps 757 mmHg 86%

    Pasado mañana, 2 Junio, Martes

    Tiempo Temperatura Precipitaciones Viento Presión Humedad
    00:00 +29°C° 1.4 mm 2 mps 757 mmHg 87%
    01:00 +29°C° 1.4 mm 2 mps 757 mmHg 88%
    02:00 +29°C° 0.3 mm 1 mps 756 mmHg 89%
    03:00 +29°C° 0.3 mm 1 mps 756 mmHg 89%
    04:00 +26°C° 0.3 mm 0 mps 756 mmHg 89%
    05:00 +27°C° 0 mm 0 mps 756 mmHg 88%
    06:00 +29°C° 0 mm 1 mps 757 mmHg 87%
    07:00 +29°C° 0 mm 1 mps 757 mmHg 86%
    08:00 +31°C° 0 mm 1 mps 757 mmHg 78%
    09:00 +32°C° 0 mm 2 mps 757 mmHg 71%
    10:00 +35°C° 0 mm 2 mps 757 mmHg 63%
    11:00 +36°C° 0.4 mm 2 mps 757 mmHg 57%
    12:00 +36°C° 0.4 mm 1 mps 756 mmHg 51%
    13:00 +37°C° 0.4 mm 1 mps 756 mmHg 45%
    14:00 +37°C° 0 mm 1 mps 755 mmHg 47%
    15:00 +37°C° 0 mm 2 mps 754 mmHg 48%
    16:00 +37°C° 0 mm 2 mps 754 mmHg 50%
    17:00 +35°C° 0.1 mm 2 mps 754 mmHg 58%
    18:00 +32°C° 0.1 mm 2 mps 754 mmHg 66%
    19:00 +31°C° 0.1 mm 2 mps 755 mmHg 74%
    20:00 +30°C° 0.2 mm 2 mps 755 mmHg 76%
    21:00 +30°C° 0.2 mm 2 mps 756 mmHg 77%
    22:00 +30°C° 0.2 mm 2 mps 757 mmHg 79%
    23:00 +29°C° 0.1 mm 2 mps 756 mmHg 81%

    3 Junio, Miércoles

    Tiempo Temperatura Precipitaciones Viento Presión Humedad
    00:00 +29°C° 0.1 mm 2 mps 756 mmHg 83%
    01:00 +29°C° 0.1 mm 1 mps 756 mmHg 86%
    02:00 +28°C° 0 mm 1 mps 756 mmHg 86%
    03:00 +28°C° 0 mm 1 mps 755 mmHg 86%
    04:00 +28°C° 0 mm 1 mps 755 mmHg 87%
    05:00 +29°C° 0 mm 2 mps 756 mmHg 85%
    06:00 +29°C° 0 mm 2 mps 756 mmHg 82%
    07:00 +30°C° 0 mm 2 mps 756 mmHg 80%
    08:00 +31°C° 0 mm 2 mps 756 mmHg 72%
    09:00 +34°C° 0 mm 2 mps 756 mmHg 64%
    10:00 +36°C° 0 mm 2 mps 756 mmHg 55%
    11:00 +37°C° 0 mm 2 mps 756 mmHg 51%
    12:00 +38°C° 0 mm 2 mps 755 mmHg 46%
    13:00 +39°C° 0 mm 2 mps 755 mmHg 42%
    14:00 +38°C° 0.5 mm 2 mps 754 mmHg 47%
    15:00 +37°C° 0.5 mm 2 mps 754 mmHg 52%
    16:00 +36°C° 0.5 mm 2 mps 753 mmHg 58%
    17:00 +34°C° 1.4 mm 3 mps 754 mmHg 65%
    18:00 +31°C° 1.4 mm 3 mps 754 mmHg 73%
    19:00 +30°C° 1.4 mm 3 mps 755 mmHg 81%
    20:00 +29°C° 0.1 mm 2 mps 755 mmHg 82%
    21:00 +29°C° 0.1 mm 2 mps 756 mmHg 84%
    22:00 +29°C° 0.1 mm 2 mps 756 mmHg 86%
    23:00 +29°C° 0.2 mm 2 mps 756 mmHg 87%

    4 Junio, Jueves

    Tiempo Temperatura Precipitaciones Viento Presión Humedad
    00:00 +28°C° 0.2 mm 2 mps 755 mmHg 88%
    01:00 +28°C° 0.2 mm 1 mps 755 mmHg 89%
    02:00 +28°C° 0 mm 1 mps 755 mmHg 89%
    03:00 +28°C° 0 mm 1 mps 755 mmHg 90%
    04:00 +28°C° 0 mm 1 mps 755 mmHg 91%
    05:00 +28°C° 0.2 mm 1 mps 755 mmHg 88%
    06:00 +29°C° 0.2 mm 1 mps 755 mmHg 86%
    07:00 +30°C° 0.2 mm 1 mps 755 mmHg 84%
    08:00 +31°C° 1.1 mm 2 mps 756 mmHg 78%
    09:00 +32°C° 1.1 mm 2 mps 756 mmHg 72%
    10:00 +34°C° 1.1 mm 2 mps 756 mmHg 66%
    11:00 +35°C° 0.3 mm 2 mps 756 mmHg 62%
    12:00 +36°C° 0.3 mm 2 mps 755 mmHg 58%
    13:00 +37°C° 0.3 mm 2 mps 755 mmHg 54%
    14:00 +36°C° 0.6 mm 2 mps 754 mmHg 58%
    15:00 +35°C° 0.6 mm 2 mps 754 mmHg 63%
    16:00 +34°C° 0.6 mm 2 mps 753 mmHg 68%
    17:00 +32°C° 0.2 mm 2 mps 754 mmHg 73%
    18:00 +31°C° 0.2 mm 2 mps 754 mmHg 78%
    19:00 +29°C° 0.2 mm 1 mps 754 mmHg 83%
    20:00 +29°C° 0 mm 1 mps 755 mmHg 84%
    21:00 +29°C° 0 mm 1 mps 755 mmHg 85%
    22:00 +29°C° 0 mm 1 mps 756 mmHg 85%
    23:00 +28°C° 0 mm 1 mps 756 mmHg 86%

    5 Junio, Viernes

    Tiempo Temperatura Precipitaciones Viento Presión Humedad
    00:00 +28°C° 0 mm 1 mps 755 mmHg 87%
    01:00 +28°C° 0 mm 1 mps 755 mmHg 87%
    02:00 +28°C° 0 mm 1 mps 755 mmHg 88%
    03:00 +28°C° 0 mm 1 mps 755 mmHg 88%
    04:00 +28°C° 0 mm 1 mps 755 mmHg 89%
    05:00 +28°C° 0 mm 1 mps 755 mmHg 86%
    06:00 +29°C° 0 mm 1 mps 755 mmHg 84%
    07:00 +29°C° 0 mm 1 mps 756 mmHg 81%
    08:00 +31°C° 0.1 mm 2 mps 756 mmHg 72%
    09:00 +34°C° 0.1 mm 2 mps 756 mmHg 62%
    10:00 +36°C° 0.1 mm 3 mps 756 mmHg 53%
    11:00 +36°C° 0 mm 3 mps 755 mmHg 55%
    12:00 +36°C° 0 mm 3 mps 755 mmHg 57%
    13:00 +35°C° 0 mm 3 mps 754 mmHg 59%
    14:00 +35°C° 1.2 mm 3 mps 754 mmHg 61%
    15:00 +34°C° 1.2 mm 3 mps 754 mmHg 63%
    16:00 +34°C° 1.2 mm 3 mps 753 mmHg 66%
    17:00 +32°C° 1 mm 2 mps 754 mmHg 71%
    18:00 +31°C° 1 mm 2 mps 754 mmHg 76%
    19:00 +30°C° 1 mm 1 mps 754 mmHg 81%
    20:00 +29°C° 0 mm 1 mps 755 mmHg 82%
    21:00 +29°C° 0 mm 2 mps 755 mmHg 83%
    22:00 +28°C° 0 mm 2 mps 756 mmHg 84%
    23:00 +28°C° 0 mm 2 mps 756 mmHg 84%
    Mostrar más